When you browse on this site, cookies collect data to enhance your experience and personalize the content and advertising you see.
Visit our Privacy Policy to learn more. By continuing to use the site, you agree to this use of cookies and data.
  • In Lithuania
  • List of Countries
  • For 7 days
  • Water Temperature
  • Satellite Maps
  • Weather Map
  • Weather Widgets
  • user-avatar
    Login

    Hourly Weather Quito

    Today, 20 February, Wednesday

    Time Temperature Precipitation Wind Pressure Humidity
    00:00 +16°C° 0.3 mm 0 mps 621 mmHg 90%
    01:00 +15°C° 0 mm 0 mps 621 mmHg 92%
    02:00 +15°C° 0.2 mm 0 mps 621 mmHg 92%
    03:00 +18°C° 0.2 mm 1 mps 621 mmHg 92%
    04:00 +18°C° 0.2 mm 1 mps 621 mmHg 93%
    05:00 +18°C° 0 mm 1 mps 621 mmHg 93%
    06:00 +18°C° 0 mm 1 mps 622 mmHg 93%
    07:00 +19°C° 0 mm 1 mps 622 mmHg 92%
    08:00 +20°C° 0.5 mm 1 mps 623 mmHg 87%
    09:00 +21°C° 0.5 mm 2 mps 623 mmHg 81%
    10:00 +22°C° 0.5 mm 3 mps 623 mmHg 76%
    11:00 +24°C° 0.5 mm 3 mps 623 mmHg 73%
    12:00 +25°C° 0.5 mm 3 mps 623 mmHg 70%
    13:00 +26°C° 0.5 mm 3 mps 623 mmHg 66%
    14:00 +26°C° 2.5 mm 3 mps 622 mmHg 70%
    15:00 +25°C° 2.5 mm 2 mps 622 mmHg 74%
    16:00 +25°C° 2.5 mm 2 mps 621 mmHg 77%
    17:00 +23°C° 3 mm 1 mps 621 mmHg 81%
    18:00 +22°C° 3 mm 1 mps 621 mmHg 85%
    19:00 +20°C° 3 mm 1 mps 621 mmHg 89%
    20:00 +20°C° 1.9 mm 1 mps 622 mmHg 90%
    21:00 +19°C° 1.9 mm 1 mps 622 mmHg 91%
    22:00 +19°C° 1.9 mm 1 mps 623 mmHg 91%
    23:00 +19°C° 1.3 mm 1 mps 623 mmHg 92%

    Tomorrow, 21 February, Thursday

    Time Temperature Precipitation Wind Pressure Humidity
    00:00 +18°C° 1.3 mm 1 mps 623 mmHg 92%
    01:00 +18°C° 1.3 mm 1 mps 622 mmHg 93%
    02:00 +18°C° 0.7 mm 1 mps 622 mmHg 93%
    03:00 +16°C° 0.7 mm 0 mps 622 mmHg 93%
    04:00 +16°C° 0.7 mm 0 mps 622 mmHg 93%
    05:00 +16°C° 0 mm 0 mps 622 mmHg 92%
    06:00 +17°C° 0 mm 0 mps 623 mmHg 91%
    07:00 +17°C° 0 mm 0 mps 623 mmHg 89%
    08:00 +21°C° 0 mm 1 mps 624 mmHg 81%
    09:00 +23°C° 0 mm 2 mps 625 mmHg 72%
    10:00 +24°C° 0 mm 3 mps 626 mmHg 63%
    11:00 +25°C° 0.2 mm 3 mps 625 mmHg 62%
    12:00 +25°C° 0.2 mm 3 mps 625 mmHg 62%
    13:00 +26°C° 0.2 mm 3 mps 625 mmHg 61%
    14:00 +25°C° 0.8 mm 3 mps 624 mmHg 66%
    15:00 +24°C° 0.8 mm 2 mps 624 mmHg 71%
    16:00 +23°C° 0.8 mm 2 mps 623 mmHg 76%
    17:00 +21°C° 0.7 mm 2 mps 623 mmHg 82%
    18:00 +19°C° 0.7 mm 2 mps 623 mmHg 87%
    19:00 +18°C° 0.7 mm 1 mps 623 mmHg 93%
    20:00 +18°C° 0 mm 1 mps 623 mmHg 94%
    21:00 +16°C° 0 mm 1 mps 623 mmHg 95%
    22:00 +16°C° 0 mm 1 mps 624 mmHg 95%
    23:00 +15°C° 0 mm 1 mps 623 mmHg 95%

    Day after tomorrow, 22 February, Friday

    Time Temperature Precipitation Wind Pressure Humidity
    00:00 +15°C° 0 mm 1 mps 623 mmHg 95%
    01:00 +15°C° 0 mm 1 mps 622 mmHg 95%
    02:00 +15°C° 0 mm 1 mps 622 mmHg 94%
    03:00 +15°C° 0 mm 1 mps 622 mmHg 94%
    04:00 +15°C° 0 mm 1 mps 622 mmHg 93%
    05:00 +14°C° 0 mm 0 mps 622 mmHg 92%
    06:00 +15°C° 0 mm 0 mps 623 mmHg 90%
    07:00 +16°C° 0 mm 0 mps 624 mmHg 88%
    08:00 +20°C° 0.1 mm 1 mps 624 mmHg 80%
    09:00 +21°C° 0.1 mm 2 mps 625 mmHg 71%
    10:00 +24°C° 0.1 mm 3 mps 626 mmHg 62%
    11:00 +24°C° 0.2 mm 3 mps 625 mmHg 63%
    12:00 +25°C° 0.2 mm 4 mps 625 mmHg 63%
    13:00 +25°C° 0.2 mm 4 mps 624 mmHg 63%
    14:00 +25°C° 1.1 mm 3 mps 623 mmHg 67%
    15:00 +24°C° 1.1 mm 2 mps 623 mmHg 70%
    16:00 +24°C° 1.1 mm 1 mps 622 mmHg 73%
    17:00 +22°C° 1.3 mm 1 mps 622 mmHg 78%
    18:00 +21°C° 1.3 mm 1 mps 622 mmHg 83%
    19:00 +19°C° 1.3 mm 1 mps 622 mmHg 88%
    20:00 +19°C° 2.2 mm 1 mps 623 mmHg 89%
    21:00 +19°C° 2.2 mm 1 mps 623 mmHg 90%
    22:00 +19°C° 2.2 mm 1 mps 624 mmHg 91%
    23:00 +18°C° 0.8 mm 1 mps 623 mmHg 92%

    23 February, Saturday

    Time Temperature Precipitation Wind Pressure Humidity
    00:00 +18°C° 0.8 mm 1 mps 623 mmHg 93%
    01:00 +16°C° 0.8 mm 1 mps 622 mmHg 94%
    02:00 +16°C° 0.1 mm 1 mps 622 mmHg 94%
    03:00 +16°C° 0.1 mm 1 mps 622 mmHg 94%
    04:00 +16°C° 0.1 mm 1 mps 621 mmHg 94%
    05:00 +16°C° 0 mm 1 mps 622 mmHg 93%
    06:00 +18°C° 0 mm 1 mps 622 mmHg 92%
    07:00 +16°C° 0 mm 0 mps 623 mmHg 91%
    08:00 +20°C° 0 mm 1 mps 623 mmHg 82%
    09:00 +22°C° 0 mm 1 mps 624 mmHg 74%
    10:00 +24°C° 0 mm 1 mps 625 mmHg 65%
    11:00 +25°C° 0 mm 2 mps 624 mmHg 61%
    12:00 +26°C° 0 mm 3 mps 623 mmHg 57%
    13:00 +26°C° 0 mm 4 mps 623 mmHg 53%
    14:00 +26°C° 0.2 mm 3 mps 622 mmHg 57%
    15:00 +25°C° 0.2 mm 2 mps 621 mmHg 61%
    16:00 +25°C° 0.2 mm 2 mps 621 mmHg 66%
    17:00 +23°C° 0.5 mm 2 mps 621 mmHg 73%
    18:00 +20°C° 0.5 mm 2 mps 621 mmHg 80%
    19:00 +18°C° 0.5 mm 2 mps 621 mmHg 87%
    20:00 +19°C° 0.1 mm 1 mps 621 mmHg 88%
    21:00 +18°C° 0.1 mm 1 mps 622 mmHg 89%
    22:00 +16°C° 0.1 mm 1 mps 622 mmHg 91%
    23:00 +16°C° 0 mm 1 mps 622 mmHg 92%

    24 February, Sunday

    Time Temperature Precipitation Wind Pressure Humidity
    00:00 +16°C° 0 mm 1 mps 621 mmHg 93%
    01:00 +16°C° 0 mm 1 mps 621 mmHg 94%
    02:00 +15°C° 0 mm 1 mps 621 mmHg 94%
    03:00 +15°C° 0 mm 1 mps 620 mmHg 94%
    04:00 +15°C° 0 mm 1 mps 620 mmHg 95%
    05:00 +15°C° 0 mm 1 mps 620 mmHg 93%
    06:00 +16°C° 0 mm 1 mps 621 mmHg 92%
    07:00 +18°C° 0 mm 1 mps 622 mmHg 90%
    08:00 +20°C° 0 mm 1 mps 622 mmHg 80%
    09:00 +23°C° 0 mm 1 mps 623 mmHg 69%
    10:00 +26°C° 0 mm 1 mps 624 mmHg 59%
    11:00 +26°C° 0 mm 2 mps 624 mmHg 57%
    12:00 +26°C° 0 mm 3 mps 623 mmHg 55%
    13:00 +27°C° 0 mm 3 mps 622 mmHg 53%
    14:00 +26°C° 0.3 mm 3 mps 622 mmHg 56%
    15:00 +26°C° 0.3 mm 2 mps 621 mmHg 60%
    16:00 +25°C° 0.3 mm 2 mps 620 mmHg 64%
    17:00 +23°C° 0.3 mm 2 mps 620 mmHg 72%
    18:00 +20°C° 0.3 mm 2 mps 620 mmHg 79%
    19:00 +18°C° 0.3 mm 2 mps 620 mmHg 86%
    20:00 +19°C° 0 mm 1 mps 621 mmHg 87%
    21:00 +18°C° 0 mm 1 mps 621 mmHg 89%
    22:00 +18°C° 0 mm 1 mps 621 mmHg 90%
    23:00 +16°C° 0 mm 1 mps 621 mmHg 91%

    25 February, Monday

    Time Temperature Precipitation Wind Pressure Humidity
    00:00 +16°C° 0 mm 1 mps 620 mmHg 92%
    01:00 +16°C° 0 mm 1 mps 620 mmHg 93%
    02:00 +15°C° 0 mm 0 mps 620 mmHg 93%
    03:00 +15°C° 0 mm 0 mps 620 mmHg 93%
    04:00 +15°C° 0 mm 0 mps 620 mmHg 93%
    05:00 +15°C° 0 mm 0 mps 620 mmHg 90%
    06:00 +16°C° 0 mm 0 mps 621 mmHg 88%
    07:00 +17°C° 0 mm 0 mps 622 mmHg 85%
    08:00 +21°C° 0 mm 1 mps 622 mmHg 76%
    09:00 +23°C° 0 mm 1 mps 623 mmHg 67%
    10:00 +26°C° 0 mm 2 mps 623 mmHg 58%
    11:00 +26°C° 0 mm 2 mps 623 mmHg 54%
    12:00 +27°C° 0 mm 3 mps 623 mmHg 50%
    13:00 +28°C° 0 mm 3 mps 622 mmHg 47%
    14:00 +27°C° 0.1 mm 3 mps 622 mmHg 52%
    15:00 +26°C° 0.1 mm 3 mps 621 mmHg 58%
    16:00 +26°C° 0.1 mm 2 mps 621 mmHg 63%
    17:00 +24°C° 0.5 mm 2 mps 621 mmHg 71%
    18:00 +22°C° 0.5 mm 1 mps 621 mmHg 79%
    19:00 +20°C° 0.5 mm 1 mps 621 mmHg 86%
    20:00 +19°C° 0.6 mm 1 mps 621 mmHg 88%
    21:00 +19°C° 0.6 mm 1 mps 621 mmHg 90%
    22:00 +18°C° 0.6 mm 1 mps 621 mmHg 92%
    23:00 +18°C° 0 mm 1 mps 621 mmHg 91%
    Show more